Regional Weather Roundup
Issued by NWS

Home | Current Version | Previous Version | Text Only | Print | Product List | Glossary Off
Versions: 1 2 3 4 5 6 7 8 9 10 11 12 13 14 15 16 17 18 19 20 21 22 23 24 25 26 27

000
ASUS45 KBOU 212307
RWRCO

WEATHER ROUNDUP FOR COLORADO
NATIONAL WEATHER SERVICE DENVER/BOULDER CO
500 PM MDT SAT OCT 21 2017

NOTE: "FAIR" INDICATES FEW OR NO CLOUDS BELOW 12000 FEET WITH NO
SIGNIFICANT WEATHER AND/OR OBSTRUCTIONS TO VISIBILITY.

COZ001>005-013-030-031-220000-
...NORTHWEST COLORADO...

CITY           SKY/WX    TMP DP  RH WIND       PRES   REMARKS
CRAIG          FAIR      42  24  49 SW12      30.18R
HAYDEN         FAIR      41  22  46 SW14      30.19R
MEEKER         FAIR      45  21  38 S5        30.19R
RABBIT EARS PA MOCLDY    21  19  93 W9G24     30.17R WCI  11
STEAMBOAT SPGS CLOUDY    38  18  44 SW9       30.19R
WALDEN         NOT AVBL
$$

COZ006>008-011-220000-
...WEST CENTRAL VALLEYS...

CITY           SKY/WX    TMP DP  RH WIND       PRES   REMARKS
GRAND JUNCTION FAIR      54  11  18 NW8       30.19R
MONTROSE       FAIR      51   4  14 VRB3      30.20R
EAGLE          FAIR      45  14  28 W14       30.22R
RIFLE          FAIR      52  16  24 W9        30.18R
DELTA          FAIR      58   8  13 W14       30.17S
NUCLA          FAIR      54   1  12 NW8       30.23R
$$

COZ017>023-064>068-220000-
...SOUTHWEST COLORADO...

CITY           SKY/WX    TMP DP  RH WIND       PRES   REMARKS
DURANGO        FAIR      54   3  12 SW17G29   30.11R
CORTEZ         FAIR      54  -5   8 NW17      30.19R
PAGOSA SPRINGS FAIR      54  -6   8 S14G21    30.15R
TELLURIDE      FAIR      40   6  23 W10       30.26R
WOLF CREEK PAS FAIR      32   0  25 SW12G25   30.30R WCI  23
$$

COZ009-010-012-014-032>034-037-058>063-220000-
...CENTRAL COLORADO...

CITY           SKY/WX    TMP DP  RH WIND       PRES   REMARKS
ASPEN          FAIR      40  15  36 CALM      30.20R
BUENA VISTA    FAIR      44   5  19 W8        30.14R
COPPER MTN     FAIR      23   9  54 MISG      30.19R
BERTHOUD PASS  CLOUDY    12   1  62 NW41G47   30.11R WCI -12
COTTONWOOD PAS FAIR      39   5  24 W7G22     30.17R
GUNNISON       FAIR      43   9  24 SW12      30.20R
KREMMLING      FAIR      45  14  29 NW10      30.19R
LEADVILLE      FAIR      28  10  46 NW10G20   30.19R WCI  19
MONARCH PASS   FAIR      23  12  63 W37G45    30.29S WCI   4
SALIDA         FAIR      48   9  21 W16G23    30.20R
SUNLIGHT       FAIR      27  19  74 SW7       30.27R WCI  19
WILKERSON PASS FAIR      30   0  27 SW12G20   30.18R WCI  21
$$

COZ069>075-220000-
...SAN LUIS VALLEY/SANGRE DE CRISTO MOUNTAINS...

CITY           SKY/WX    TMP DP  RH WIND       PRES   REMARKS
ALAMOSA        FAIR      49   3  15 N20       30.13R
DEL NORTE      FAIR      52  -2  11 W14G20    30.13R
LA VETA PASS   FAIR      39  10  30 S14G23    30.29R
SAGUACHE       FAIR      45  10  24 NW23G30   30.17R
$$

COZ035-036-038>040-220000-
...NORTHERN COLORADO FRONT RANGE...

CITY           SKY/WX    TMP DP  RH WIND       PRES   REMARKS
DENVER INTL AP FAIR      51   7  16 W17       30.07R
DMNS CITY PARK   N/A     51  10  19 W13G18    30.07R
AURORA         MOSUNNY   50  10  19 NW24      30.07R
FRONT RANGE AP MOSUNNY   54   9  16 NW16      30.07R
ERIE MUNI ARPT FAIR      53   3  13 SW13      30.12R
BOULDER MUN AP FAIR      52  10  19 W8        30.06R
CENTENNIAL     FAIR      50   9  19 NW9G21    30.07R
BROOMFIELD     MOSUNNY   50  12  22 W17G25    30.08R
FORT COLLINS   FAIR      50  14  23 N15G25    30.07R
LONGMONT       FAIR      55   8  15 W16G22    30.07R
$$

COZ041-046-047-076>085-087-088-220000-
...PIKES PEAK/PALMER DIVIDE AND SOUTHERN FOOTHILLS...

CITY           SKY/WX    TMP DP  RH WIND       PRES   REMARKS
COLO. SPRINGS  FAIR      54  10  17 N9        30.06R
A. F. ACADEMY  FAIR      51   0  12 W15G22    30.07R
SCHRIEVER AFB  FAIR      52   7  16 N9        30.06R
CHEYENNE MTN   FAIR      48  -2  13 CALM      30.03R
ELLICOTT         N/A    N/A N/A N/A N13       30.06R
FALCON         FAIR      48   3  15 N10G17    30.09R
FORT CARSON    FAIR      56   1  10 W15       30.04R
LIMON          FAIR      52   2  13 NW20G26   30.06R
MONUMENT HILL  FAIR      43   7  22 N12       30.10R
CANON CITY     FAIR      61  12  15 SW3       30.03R
WALSENBURG     FAIR      57  25  28 SE6       30.07R
TRINIDAD       FAIR      56  20  24 E8        30.06R
$$

COZ042>045-048>051-090-091-220000-
...NORTHEAST COLORADO...

CITY           SKY/WX    TMP DP  RH WIND       PRES   REMARKS
GREELEY ARPT   NOT AVBL
AKRON          FAIR      53   6  15 NW20G31   30.04R
BURLINGTON     FAIR      58  13  17 NW18      30.03R
WRAY           FAIR      59  10  14 NW18G29   30.00R
YUMA           NOT AVBL
STERLING       NOT AVBL
HOLYOKE        FAIR      61  16  17 NW15G22   30.00R
FORT MORGAN    FAIR      53   8  16 NW26G37   30.06R
$$

COZ086-089-092>099-220000-
...SOUTHEAST COLORADO...

CITY           SKY/WX    TMP DP  RH WIND       PRES   REMARKS
PUEBLO         FAIR      63  16  16 S5        30.01R
LA JUNTA       FAIR      63   8  11 N14       30.03R
LAMAR          FAIR      64  10  12 N17       29.99R
SPRINGFIELD      N/A     58  19  22 N16       30.02R
$$




USA.gov is the U.S. government's official web portal to all federal, state and local government web resources and services.